User: anonymous   Login
Location: Unspecified
(0.0000°N, 0.0000°E)
Time: 10:00:51
(UTC+02:00)
Language:

Delta 2 Rocket - Orbit

View from above orbital plane
View from above orbital plane
View from above satellite
View from above satellite

Ground track
Ground track

The orbit data is extracted from the following two-line orbital elements,

1 20453U 90008B   16144.83756240  .00002891  00000-0  16978-3 0  9996
2 20453  35.6265 355.3820 0294413 173.5457 186.9170 14.81762640390399
Epoch (UTC): 23 May 2016 20:06:05
Eccentricity: 0.0294413
inclination: 35.6265°
perigee height: 417 km
apogee height: 830 km
right ascension of ascending node: 355.3820°
argument of perigee: 173.5457°
revolutions per day: 14.81762640
mean anomaly at epoch: 186.9170°
orbit number at epoch: 39039

The dashed part of the orbit path shows where the satellite is in the earth's shadow,  

DLR